Location: Plymouth
(43.7570°N, 71.6890°W)
Time: 19:47:51
(UTC-04:00)

Daily predictions for brighter satellites

Satellite Brightness Start Highest point End
(mag) Time Altitude Azimuth Time Altitude Azimuth Time Altitude Azimuth
Cosmos 1943 Rocket 4.2 18:52:57 10° NNE 18:54:12 11° NE 18:55:27 10° NE
Cosmos 1805 4.2 18:53:49 10° SSE 18:57:06 26° E 19:00:25 10° NNE
Cosmos 2369 Rocket 3.5 18:54:13 10° N 18:58:30 22° NE 19:02:47 10° E
Aureole 2 Rocket 3.1 18:55:29 10° SSW 18:59:52 86° WNW 19:04:07 10° NNE
Cosmos 1766 Rocket 3.9 18:56:45 10° N 19:00:57 43° ENE 19:05:05 10° SSE
Cosmos 1076 Rocket 3.7 18:57:08 10° N 19:01:24 53° ENE 19:05:39 10° SSE
NOAA 12 4.2 18:56:52 10° SSE 19:01:58 55° ENE 19:07:08 10° N
NOSS 3-2 (A) 3.5 18:56:05 10° SSW 19:02:09 81° SE 19:08:50 10° NE
Meteor 1-22 Rocket 4.1 18:58:10 10° S 19:03:29 81° E 19:08:48 10° NNE
Cosmos 1953 3.0 19:00:37 10° SSE 19:04:10 32° E 19:07:43 10° NNE
Cosmos 1707 4.3 19:00:46 10° NNW 19:04:24 40° W 19:08:01 10° SSW
ATLAS CENTAUR R/B 4.0 19:01:32 10° WNW 19:04:49 23° WSW 19:07:55 10° SSW
Meteor 1-29 4.4 19:05:04 10° NE 19:07:33 18° E 19:10:01 10° SE
Meteor 1-24 Rocket 3.9 19:02:02 10° NNW 19:07:39 76° W 19:13:04 10° S
Cosmos 1603 4.2 19:02:29 10° S 19:07:43 38° ESE 19:12:59 10° NE
SAR-Lupe-1 4.0 19:07:09 10° SSE 19:10:40 70° ENE 19:14:14 10° N
Cosmos-2242 3.6 19:07:19 10° SSE 19:11:18 36° E 19:15:21 10° NNE
Cosmos 1452 Rocket 3.5 19:09:21 10° NNW 19:14:38 75° ENE 19:19:52 10° SSE
Cosmos 2034 Rocket 4.1 19:13:23 10° S 19:19:31 58° E 19:25:43 10° NNE
Cosmos 1464 Rocket 3.9 19:13:46 10° S 19:19:59 78° E 19:26:10 10° N
In-Cosmos 22 4.2 19:14:35 10° N 19:20:24 73° E 19:26:07 10° SSE
Cosmos 1470 4.0 19:18:45 10° SE 19:21:36 20° E 19:24:27 10° NE
ASTEX 1 4.3 19:20:06 10° NNE 19:24:14 26° E 19:28:18 10° SE
Cosmos 2333 Rocket 4.4 19:19:47 10° WSW 19:24:39 27° NW 19:29:32 10° N
Spot 1 4.2 19:20:47 10° SSE 19:25:24 65° ENE 19:29:48 10° N
Cosmos 1674 3.6 19:24:50 10° NNE 19:28:17 29° ENE 19:31:20 12° SE
CZ-4C R/B 3.9 19:23:48 10° W 19:28:43 32° NW 19:34:14 10° NNE
CENTAUR R/B 3.2 19:25:58 10° S 19:31:06 30° ESE 19:36:44 10° NE
Cosmos 1408 Rocket 3.6 19:28:28 10° N 19:32:51 79° W 19:37:09 10° S
ATLAS CENTAUR R/B 3.8 19:27:54 10° SW 19:33:06 85° SE 19:50:25 10° NE
SJ-6B 3.3 19:29:20 10° S 19:33:18 67° W 19:37:23 10° NNW
Cosmos 1500 Rocket 4.2 19:29:28 10° N 19:33:34 35° ENE 19:37:37 10° SE
Cosmos 468 4.5 19:28:32 10° S 19:33:42 62° ESE 19:38:53 10° NNE
Cosmos 1420 Rocket 4.0 19:29:31 10° NNW 19:34:48 64° ENE 19:40:04 10° SSE
Cosmos 1842 Rocket 4.2 19:31:30 10° SSE 19:35:19 31° E 19:39:12 10° NNE
Cosmos 724 4.3 19:31:19 10° SSW 19:37:14 76° ESE 19:43:20 10° NE
ATLAS 5 CENTAUR R/B 2.0 19:33:25 10° SW 19:38:13 76° NW 19:43:29 10° NE
FengYun 1-2 T 4.2 19:35:21 10° SSE 19:40:47 64° ENE 19:46:13 10° N
NOSS 3-2 (C) 3.8 19:35:45 10° SW 19:41:50 72° NW 19:48:35 10° NE
ALOS 2.4 19:42:21 10° SSE 19:46:51 51° ENE 19:51:23 10° N
Cosmos 1758 3.5 19:43:50 10° SSW 19:47:55 76° W 19:52:03 10° N
ERBS 4.3 19:46:21 10° NNW 19:48:50 18° NNE 19:49:48 16° NE
Helios 1A 2.9 19:46:48 10° SSE 19:51:00 90° SE 19:55:15 10° NNW
Spot 2 Rocket 3.5 19:46:16 10° SSE 19:51:18 82° WSW 19:56:23 10° NNW
ISS -3.0 19:51:07 10° SW 19:54:14 46° SE 19:54:43 42° ESE
Cosmos 1048 Rocket 3.9 19:49:52 10° S 19:55:05 63° ESE 20:00:17 10° NNE
Cosmos 1544 3.1 19:53:45 10° S 19:57:29 85° W 20:01:16 10° N
Cosmos 1269 Rocket 3.9 19:52:46 10° SSW 19:58:02 79° ESE 20:03:20 10° NNE
Resurs 1-3 3.6 19:56:14 10° SSE 20:00:37 83° WSW 20:05:02 10° NNW
Meteor 1-21 Rocket 4.5 19:55:31 10° NNW 20:01:03 70° W 20:06:32 10° S
SL-8 R/B 3.6 19:57:24 10° SW 20:02:08 68° SSE 20:04:21 31° ENE
Envisat 4.2 20:02:22 22° ENE 20:02:27 22° ENE 20:06:19 10° NNE
Cosmos 1743 Rocket 3.6 19:58:23 10° N 20:02:50 80° W 20:07:14 10° S
SL-16 R/B 4.0 19:59:09 10° WSW 20:04:15 33° NW 20:09:23 10° N
Resurs 01 Rocket 2.3 20:01:57 10° S 20:06:19 56° W 20:10:43 10° NNW
Cosmos 1174 4.2 20:03:10 10° S 20:07:42 45° ESE 20:08:09 43° E
Cosmos 1328 4.0 20:08:21 10° N 20:12:08 46° ENE 20:12:08 46° ENE
USA 215 3.2 20:05:56 10° NE 20:12:28 72° SE 20:18:59 10° SW
Cosmos 158 Rocket 3.8 20:09:04 10° S 20:13:48 54° ESE 20:18:34 10° NNE
FENGYUN 3A 3.6 20:10:22 10° SSE 20:15:44 88° WSW 20:21:11 10° NNW
CZ-2D R/B 3.1 20:15:36 37° SSE 20:17:05 85° ENE 20:21:00 10° NNW
Helios 1B rocket 3.5 20:18:50 10° N 20:22:47 45° WNW 20:26:42 10° SW
Nadezhda 4 Rocket 4.4 20:17:19 10° NNW 20:23:31 62° W 20:29:36 10° S
Cosmos 2279 Rocket 4.3 20:25:11 40° ESE 20:26:03 42° E 20:31:51 10° NNE
Abrixas 3.6 20:24:49 10° WSW 20:26:59 43° W 20:26:59 43° W
H-2A R/B 3.0 20:28:08 40° S 20:29:23 69° WSW 20:33:16 10° NNW
GP-B 2.9 20:25:14 10° N 20:29:42 76° E 20:30:36 55° SSE
Cosmos 1092 Rocket 4.2 20:26:21 10° NNW 20:32:32 72° W 20:38:38 10° S
CZ-4B DEB 4.0 20:31:56 34° SW 20:32:43 41° W 20:35:52 10° NNW
ERS-1 Rocket 3.3 20:35:35 46° ENE 20:35:35 46° ENE 20:40:04 10° N
SJ-11-01 4.5 20:39:13 54° NE 20:39:13 54° NE 20:43:19 10° N
Cosmos 1655 Rocket 3.9 20:32:34 10° N 20:38:47 67° E 20:40:33 47° SE
Cosmos 1943 Rocket 2.3 20:33:53 10° NNW 20:39:22 51° ENE 20:39:37 51° ENE
Gbstr 26 Del rocket 3.2 20:34:50 10° SW 20:39:24 73° SE 20:39:49 69° ESE
Cosmos 2142 Rocket 4.5 20:35:24 10° S 20:41:46 89° ESE 20:48:14 10° N
Cosmos 2369 Rocket 2.4 20:37:26 10° NNW 20:43:04 69° WSW 20:45:20 37° S
H-2A R/B 4.2 20:46:03 17° NNE 20:46:03 17° NNE 20:47:29 10° N
Cosmos 2026 Rocket 3.8 20:38:37 10° N 20:44:45 81° E 20:46:56 43° SSE
Cosmos 1943 3.2 20:39:39 10° SSW 20:45:18 81° WNW 20:50:57 10° NNE
Cosmos 1110 Rocket 3.9 20:40:15 10° NNW 20:45:35 82° ENE 20:46:09 71° SE
Cosmos 1428 Rocket 4.5 20:41:14 10° N 20:47:26 57° ENE 20:47:47 56° E
Cosmos 2058 3.8 20:45:05 10° N 20:47:52 42° N 20:47:52 42° N
Cosmos 1634 Rocket 4.1 20:43:27 10° SSW 20:49:41 76° W 20:55:55 10° N
Cosmos 2151 3.3 20:47:55 10° NNW 20:52:05 61° W 20:52:06 61° W
Cosmos 2263 4.2 20:46:45 10° NNW 20:52:33 80° WSW 20:53:42 58° S
Cosmos 2221 4.5 20:57:15 20° N 20:57:15 20° N 20:58:37 10° N
Meteor 2-20 4.3 21:06:35 10° N 21:12:33 82° NE 21:12:33 82° NE
Meteor 2-1 Rocket 4.3 21:16:32 78° W 21:16:34 78° W 21:22:29 10° N
Cosmos 1331 Rocket 4.4 21:12:28 10° NNW 21:17:26 60° W 21:17:26 60° W
CENTAUR R/B 3.1 21:15:13 10° SW 21:21:17 56° NW 21:28:10 10° NNE
ATLAS 5 CENTAUR R/B 4.4 21:20:25 10° WNW 21:23:53 18° NNW 21:27:34 10° NNE
Envisat 4.3 21:42:35 38° NW 21:42:35 38° NW 21:46:05 10° NNW
USA 215 4.1 21:53:08 34° NNE 21:55:16 45° NNW 22:01:23 10° W
H-2A R/B 4.5 22:01:01 15° N 22:01:01 15° N 22:01:52 10° N
Cosmos 1943 Rocket 4.3 22:18:21 10° NW 22:21:09 21° WNW 22:21:09 21° WNW
CZ-3A R/B 4.5 22:05:41 10° SW 22:27:53 64° SW 22:27:53 64° SW
